AAL2183 KIND-KCLT

Flight info

Callsign AAL2183
Flight time 1h 4m
Altitude 35000
Route DAWNN1 IIU TAFTT PARQR4
Aircraft B38M/M-SDE1FGHILORVWXY/HB1

Departure

Time 2026-05-07 02:21
Airport Indianapolis International Airport (KIND)

Arrival

Time 2026-05-07 03:26
Airport Charlotte Douglas International Airport (KCLT)
Time Latitude Longitude Altitude Speed Heading
2026-05-07 01:47 39.71685 -86.29864 783 ft 0 kts 122°
2026-05-07 02:05 39.71688 -86.29870 783 ft 4 kts 122°
2026-05-07 02:05 39.71702 -86.29899 783 ft 4 kts 122°
2026-05-07 02:06 39.71714 -86.29923 783 ft 4 kts 115°
2026-05-07 02:06 39.71716 -86.29954 783 ft 4 kts 68°
2026-05-07 02:06 39.71703 -86.29984 783 ft 4 kts 54°
2026-05-07 02:06 39.71693 -86.30002 783 ft 0 kts 58°
2026-05-07 02:14 39.71693 -86.30001 746 ft 1 kts 58°
2026-05-07 02:14 39.71726 -86.29954 783 ft 15 kts 34°
2026-05-07 02:15 39.71855 -86.29886 783 ft 23 kts 20°
2026-05-07 02:15 39.71990 -86.29763 783 ft 25 kts 39°
2026-05-07 02:15 39.72106 -86.29641 783 ft 18 kts 39°
2026-05-07 02:15 39.72203 -86.29629 783 ft 15 kts 314°
2026-05-07 02:16 39.72248 -86.29691 783 ft 8 kts 316°
2026-05-07 02:16 39.72300 -86.29668 783 ft 12 kts 49°
2026-05-07 02:16 39.72382 -86.29561 783 ft 19 kts 44°
2026-05-07 02:16 39.72473 -86.29445 783 ft 16 kts 44°
2026-05-07 02:17 39.72551 -86.29346 783 ft 17 kts 44°
2026-05-07 02:17 39.72630 -86.29245 783 ft 15 kts 45°
2026-05-07 02:17 39.72697 -86.29167 783 ft 10 kts 18°
2026-05-07 02:17 39.72746 -86.29205 783 ft 4 kts 315°
2026-05-07 02:18 39.72747 -86.29206 783 ft 0 kts 314°
2026-05-07 02:19 39.72748 -86.29207 783 ft 1 kts 314°
2026-05-07 02:19 39.72759 -86.29222 783 ft 4 kts 315°
2026-05-07 02:19 39.72803 -86.29279 782 ft 11 kts 314°
2026-05-07 02:19 39.72812 -86.29311 782 ft 1 kts 232°
2026-05-07 02:20 39.72808 -86.29316 782 ft 0 kts 226°
2026-05-07 02:20 39.72802 -86.29325 782 ft 5 kts 226°
2026-05-07 02:20 39.72627 -86.29550 781 ft 74 kts 224°
2026-05-07 02:21 39.72094 -86.30228 783 ft 138 kts 224°
2026-05-07 02:21 39.71300 -86.31214 1061 ft 165 kts 225°
2026-05-07 02:21 39.70432 -86.32296 1680 ft 177 kts 225°
2026-05-07 02:21 39.69561 -86.33384 2544 ft 173 kts 227°
2026-05-07 02:22 39.68660 -86.34543 2912 ft 194 kts 228°
2026-05-07 02:22 39.67660 -86.35851 3199 ft 216 kts 228°
2026-05-07 02:22 39.66558 -86.37293 3457 ft 237 kts 227°
2026-05-07 02:22 39.65381 -86.38832 4206 ft 236 kts 227°
2026-05-07 02:23 39.64020 -86.40123 4752 ft 257 kts 202°
2026-05-07 02:23 39.62247 -86.40412 5265 ft 273 kts 176°
2026-05-07 02:23 39.60393 -86.39974 6092 ft 274 kts 175°
2026-05-07 02:23 39.58483 -86.39679 6807 ft 277 kts 176°
2026-05-07 02:24 39.56564 -86.39380 7501 ft 282 kts 177°
2026-05-07 02:24 39.54619 -86.39068 8211 ft 285 kts 177°
2026-05-07 02:24 39.52635 -86.38743 8924 ft 289 kts 178°
2026-05-07 02:24 39.50635 -86.38410 9644 ft 292 kts 178°
2026-05-07 02:25 39.48604 -86.38072 10289 ft 298 kts 179°
2026-05-07 02:25 39.46492 -86.37727 10566 ft 316 kts 179°
2026-05-07 02:25 39.44271 -86.37367 10875 ft 331 kts 179°
2026-05-07 02:25 39.41955 -86.36989 11433 ft 336 kts 180°
2026-05-07 02:26 39.39632 -86.36602 12200 ft 337 kts 181°
2026-05-07 02:26 39.37327 -86.36217 12981 ft 338 kts 183°
2026-05-07 02:26 39.34987 -86.35825 13829 ft 340 kts 184°
2026-05-07 02:26 39.32637 -86.35432 14564 ft 342 kts 184°
2026-05-07 02:27 39.30297 -86.35041 15282 ft 344 kts 185°
2026-05-07 02:27 39.27908 -86.34641 15970 ft 347 kts 185°
2026-05-07 02:27 39.25509 -86.34241 16701 ft 348 kts 186°
2026-05-07 02:27 39.23123 -86.33842 17390 ft 351 kts 186°
2026-05-07 02:28 39.20712 -86.33441 18059 ft 354 kts 186°
2026-05-07 02:28 39.18254 -86.33031 18670 ft 357 kts 187°
2026-05-07 02:28 39.15783 -86.32620 19274 ft 358 kts 187°
2026-05-07 02:28 39.13350 -86.32215 19847 ft 360 kts 187°
2026-05-07 02:29 39.10860 -86.31801 20453 ft 361 kts 187°
2026-05-07 02:29 39.08367 -86.31386 21032 ft 362 kts 188°
2026-05-07 02:29 39.05851 -86.30967 21548 ft 364 kts 188°
2026-05-07 02:29 39.03368 -86.30555 22157 ft 365 kts 188°
2026-05-07 02:30 39.00811 -86.30131 22739 ft 367 kts 189°
2026-05-07 02:30 38.98270 -86.29698 23310 ft 372 kts 187°
2026-05-07 02:30 38.95706 -86.28605 23941 ft 409 kts 168°
2026-05-07 02:30 38.93324 -86.26356 24546 ft 445 kts 150°
2026-05-07 02:31 38.91471 -86.23181 25049 ft 480 kts 130°
2026-05-07 02:31 38.90103 -86.19189 25553 ft 490 kts 126°
2026-05-07 02:31 38.88657 -86.15269 25891 ft 492 kts 128°
2026-05-07 02:31 38.87148 -86.11303 26352 ft 494 kts 128°
2026-05-07 02:32 38.85626 -86.07336 26787 ft 498 kts 128°
2026-05-07 02:32 38.84090 -86.03351 27186 ft 502 kts 128°
2026-05-07 02:32 38.82532 -85.99320 27618 ft 505 kts 128°
2026-05-07 02:32 38.80964 -85.95266 28027 ft 508 kts 128°
2026-05-07 02:33 38.79387 -85.91192 28450 ft 511 kts 128°
2026-05-07 02:33 38.77801 -85.87103 28841 ft 515 kts 128°
2026-05-07 02:33 38.76198 -85.82973 29250 ft 518 kts 128°
2026-05-07 02:33 38.74586 -85.78827 29645 ft 522 kts 128°
2026-05-07 02:34 38.72963 -85.74659 30038 ft 525 kts 128°
2026-05-07 02:34 38.71332 -85.70479 30367 ft 528 kts 128°
2026-05-07 02:34 38.69693 -85.66279 30690 ft 531 kts 128°
2026-05-07 02:34 38.68049 -85.62072 31001 ft 534 kts 128°
2026-05-07 02:35 38.66387 -85.57828 31282 ft 537 kts 129°
2026-05-07 02:35 38.64716 -85.53565 31592 ft 540 kts 129°
2026-05-07 02:35 38.63026 -85.49258 31896 ft 543 kts 129°
2026-05-07 02:35 38.61329 -85.44942 32200 ft 546 kts 129°
2026-05-07 02:36 38.59614 -85.40585 32463 ft 549 kts 129°
2026-05-07 02:36 38.57893 -85.36214 32728 ft 552 kts 129°
2026-05-07 02:36 38.56159 -85.31822 33018 ft 554 kts 129°
2026-05-07 02:36 38.54419 -85.27424 33338 ft 556 kts 129°
2026-05-07 02:37 38.52675 -85.23013 33666 ft 558 kts 130°
2026-05-07 02:37 38.50913 -85.18572 33943 ft 561 kts 130°
2026-05-07 02:37 38.49178 -85.14200 34205 ft 563 kts 130°
2026-05-07 02:37 38.47411 -85.09756 34458 ft 566 kts 130°
2026-05-07 02:38 38.45629 -85.05273 34770 ft 566 kts 130°
2026-05-07 02:38 38.43840 -85.00779 34996 ft 568 kts 130°
2026-05-07 02:38 38.40264 -84.91823 35025 ft 565 kts 130°
2026-05-07 02:39 38.36701 -84.82929 35027 ft 565 kts 130°
2026-05-07 02:39 38.33115 -84.74004 35024 ft 565 kts 130°
2026-05-07 02:40 38.29531 -84.65110 34999 ft 564 kts 130°
2026-05-07 02:40 38.25952 -84.56251 35019 ft 564 kts 130°
2026-05-07 02:41 38.22359 -84.47385 35024 ft 563 kts 130°
2026-05-07 02:41 38.18763 -84.38535 35025 ft 563 kts 130°
2026-05-07 02:42 38.15168 -84.29713 35030 ft 563 kts 130°
2026-05-07 02:42 38.11566 -84.20900 35040 ft 561 kts 129°
2026-05-07 02:43 38.07968 -84.12120 35047 ft 560 kts 130°
2026-05-07 02:43 38.04374 -84.03375 35056 ft 560 kts 130°
2026-05-07 02:44 38.00795 -83.94691 35061 ft 557 kts 129°
2026-05-07 02:44 37.97196 -83.85978 35045 ft 558 kts 129°
2026-05-07 02:45 37.93580 -83.77255 35010 ft 559 kts 129°
2026-05-07 02:45 37.89962 -83.68547 35015 ft 559 kts 129°
2026-05-07 02:46 37.86335 -83.59844 35010 ft 558 kts 129°
2026-05-07 02:46 37.82701 -83.51146 34993 ft 559 kts 129°
2026-05-07 02:47 37.79048 -83.42426 35017 ft 562 kts 129°
2026-05-07 02:47 37.75384 -83.33706 34978 ft 561 kts 129°
2026-05-07 02:48 37.71711 -83.24988 35023 ft 563 kts 129°
2026-05-07 02:48 37.68056 -83.16338 35031 ft 562 kts 129°
2026-05-07 02:49 37.64372 -83.07637 35013 ft 563 kts 129°
2026-05-07 02:49 37.60723 -82.99039 35022 ft 547 kts 129°
2026-05-07 02:50 37.57141 -82.90634 34989 ft 544 kts 130°
2026-05-07 02:50 37.53131 -82.82811 34989 ft 508 kts 149°
2026-05-07 02:51 37.48132 -82.76630 34959 ft 514 kts 144°
2026-05-07 02:51 37.43489 -82.69987 34740 ft 541 kts 116°
2026-05-07 02:52 37.42597 -82.65377 34364 ft 534 kts 121°
2026-05-07 02:52 37.41069 -82.61378 34708 ft 510 kts 134°
2026-05-07 02:52 37.39105 -82.57760 34596 ft 510 kts 139°
2026-05-07 02:52 37.36914 -82.54287 34538 ft 501 kts 148°
2026-05-07 02:53 37.34405 -82.51331 34488 ft 486 kts 157°
2026-05-07 02:53 37.31760 -82.48768 34441 ft 484 kts 160°
2026-05-07 02:53 37.28989 -82.46656 34661 ft 456 kts 172°
2026-05-07 02:53 37.26129 -82.44849 34843 ft 472 kts 164°
2026-05-07 02:54 37.23474 -82.42262 34698 ft 494 kts 153°
2026-05-07 02:54 37.20857 -82.39566 33850 ft 473 kts 163°
2026-05-07 02:54 37.18185 -82.37350 33344 ft 479 kts 155°
2026-05-07 02:54 37.15668 -82.34478 32617 ft 492 kts 150°
2026-05-07 02:55 37.13168 -82.31518 31829 ft 495 kts 150°
2026-05-07 02:55 37.10621 -82.28681 31416 ft 490 kts 153°
2026-05-07 02:55 37.07994 -82.25945 30881 ft 491 kts 154°
2026-05-07 02:55 37.05327 -82.23294 30464 ft 489 kts 158°
2026-05-07 02:56 37.02521 -82.20956 29991 ft 478 kts 161°
2026-05-07 02:56 36.99700 -82.18747 30055 ft 482 kts 161°
2026-05-07 02:56 36.93959 -82.14518 30001 ft 478 kts 165°
2026-05-07 02:57 36.89044 -82.11215 29979 ft 478 kts 166°
2026-05-07 02:57 36.82228 -82.06666 29961 ft 478 kts 166°
2026-05-07 02:58 36.77327 -82.03374 30022 ft 479 kts 166°
2026-05-07 02:58 36.71469 -81.99445 29299 ft 476 kts 165°
2026-05-07 02:59 36.68545 -81.97492 28496 ft 476 kts 165°
2026-05-07 02:59 36.65656 -81.95560 27653 ft 478 kts 163°
2026-05-07 02:59 36.62711 -81.93588 27107 ft 475 kts 164°
2026-05-07 02:59 36.59834 -81.91672 26601 ft 478 kts 163°
2026-05-07 03:00 36.56897 -81.89717 26028 ft 480 kts 163°
2026-05-07 03:00 36.53953 -81.87756 25426 ft 481 kts 163°
2026-05-07 03:00 36.51003 -81.85791 24846 ft 479 kts 162°
2026-05-07 03:00 36.48072 -81.83841 24321 ft 476 kts 162°
2026-05-07 03:01 36.45154 -81.81905 24009 ft 475 kts 161°
2026-05-07 03:01 36.42240 -81.79941 23596 ft 474 kts 161°
2026-05-07 03:01 36.39372 -81.77991 23040 ft 471 kts 161°
2026-05-07 03:01 36.36503 -81.76059 22476 ft 468 kts 161°
2026-05-07 03:02 36.33669 -81.74136 21986 ft 461 kts 161°
2026-05-07 03:02 36.30881 -81.72248 21478 ft 449 kts 161°
2026-05-07 03:02 36.28199 -81.70436 21004 ft 431 kts 162°
2026-05-07 03:02 36.25614 -81.68689 20571 ft 416 kts 162°
2026-05-07 03:03 36.23108 -81.66999 20076 ft 404 kts 162°
2026-05-07 03:03 36.20672 -81.65361 19589 ft 393 kts 162°
2026-05-07 03:03 36.18286 -81.63758 19198 ft 391 kts 161°
2026-05-07 03:03 36.15923 -81.62170 18791 ft 391 kts 161°
2026-05-07 03:04 36.13527 -81.60558 18308 ft 393 kts 161°
2026-05-07 03:04 36.11095 -81.58924 17848 ft 391 kts 161°
2026-05-07 03:04 36.08715 -81.57324 17431 ft 388 kts 160°
2026-05-07 03:04 36.06378 -81.55758 16990 ft 386 kts 160°
2026-05-07 03:05 36.04014 -81.54171 16535 ft 385 kts 160°
2026-05-07 03:05 36.01665 -81.52597 16103 ft 383 kts 160°
2026-05-07 03:05 35.99327 -81.51032 15686 ft 380 kts 160°
2026-05-07 03:05 35.97006 -81.49477 15254 ft 378 kts 159°
2026-05-07 03:06 35.94722 -81.47949 14841 ft 375 kts 159°
2026-05-07 03:06 35.92443 -81.46424 14455 ft 371 kts 159°
2026-05-07 03:06 35.90179 -81.44912 14028 ft 368 kts 158°
2026-05-07 03:06 35.87936 -81.43414 13637 ft 365 kts 158°
2026-05-07 03:07 35.85708 -81.41929 13214 ft 362 kts 158°
2026-05-07 03:07 35.83515 -81.40466 12795 ft 350 kts 158°
2026-05-07 03:07 35.81419 -81.39070 12426 ft 335 kts 158°
2026-05-07 03:07 35.79410 -81.37731 12076 ft 321 kts 158°
2026-05-07 03:08 35.77515 -81.36434 11710 ft 311 kts 157°
2026-05-07 03:08 35.75654 -81.35125 11380 ft 306 kts 157°
2026-05-07 03:08 35.73814 -81.33834 11057 ft 305 kts 156°
2026-05-07 03:08 35.71998 -81.32531 10926 ft 297 kts 156°
2026-05-07 03:09 35.70254 -81.31280 10911 ft 284 kts 156°
2026-05-07 03:09 35.68597 -81.30093 10935 ft 268 kts 157°
2026-05-07 03:09 35.67028 -81.28969 10939 ft 253 kts 156°
2026-05-07 03:09 35.65724 -81.27550 10859 ft 253 kts 133°
2026-05-07 03:10 35.64925 -81.25619 10659 ft 256 kts 110°
2026-05-07 03:10 35.64702 -81.23446 10421 ft 257 kts 92°
2026-05-07 03:10 35.64757 -81.21267 10293 ft 253 kts 90°
2026-05-07 03:10 35.64852 -81.19138 10135 ft 246 kts 89°
2026-05-07 03:11 35.64970 -81.17078 10001 ft 240 kts 88°
2026-05-07 03:11 35.65126 -81.15027 9909 ft 241 kts 86°
2026-05-07 03:11 35.65295 -81.12977 9820 ft 241 kts 87°
2026-05-07 03:11 35.65466 -81.10920 9738 ft 241 kts 86°
2026-05-07 03:12 35.65636 -81.08880 9627 ft 239 kts 86°
2026-05-07 03:12 35.65806 -81.06843 9307 ft 239 kts 86°
2026-05-07 03:12 35.65973 -81.04836 9040 ft 237 kts 87°
2026-05-07 03:12 35.66141 -81.02834 8844 ft 230 kts 87°
2026-05-07 03:13 35.66300 -81.00945 8672 ft 220 kts 87°
2026-05-07 03:13 35.66457 -80.99083 8462 ft 213 kts 87°
2026-05-07 03:13 35.66607 -80.97302 8139 ft 212 kts 87°
2026-05-07 03:13 35.66759 -80.95505 7834 ft 211 kts 87°
2026-05-07 03:14 35.66910 -80.93707 7527 ft 211 kts 87°
2026-05-07 03:14 35.67061 -80.91924 7241 ft 209 kts 87°
2026-05-07 03:14 35.66887 -80.88467 6564 ft 196 kts 132°
2026-05-07 03:15 35.65926 -80.87478 6224 ft 172 kts 173°
2026-05-07 03:15 35.64817 -80.87446 5920 ft 154 kts 200°
2026-05-07 03:15 35.63775 -80.87742 5579 ft 153 kts 202°
2026-05-07 03:15 35.62756 -80.88053 5311 ft 150 kts 202°
2026-05-07 03:16 35.61743 -80.88355 5053 ft 148 kts 202°
2026-05-07 03:16 35.60731 -80.88658 4937 ft 151 kts 202°
2026-05-07 03:16 35.59701 -80.88956 4935 ft 152 kts 202°
2026-05-07 03:16 35.58692 -80.89255 4723 ft 149 kts 202°
2026-05-07 03:17 35.57687 -80.89530 4459 ft 146 kts 201°
2026-05-07 03:17 35.56695 -80.89817 4114 ft 147 kts 202°
2026-05-07 03:17 35.55709 -80.90088 3855 ft 146 kts 201°
2026-05-07 03:17 35.54719 -80.90375 3591 ft 146 kts 202°
2026-05-07 03:18 35.53732 -80.90651 3351 ft 145 kts 202°
2026-05-07 03:18 35.52744 -80.90898 3103 ft 143 kts 201°
2026-05-07 03:18 35.51777 -80.91155 2969 ft 145 kts 202°
2026-05-07 03:18 35.50773 -80.91460 2966 ft 151 kts 202°
2026-05-07 03:19 35.49746 -80.91778 2999 ft 152 kts 202°
2026-05-07 03:19 35.48725 -80.92117 3019 ft 150 kts 204°
2026-05-07 03:19 35.47784 -80.92585 2981 ft 144 kts 217°
2026-05-07 03:19 35.46943 -80.93319 2996 ft 154 kts 222°
2026-05-07 03:20 35.46069 -80.94145 3021 ft 163 kts 221°
2026-05-07 03:20 35.45169 -80.95024 3039 ft 167 kts 222°
2026-05-07 03:20 35.44256 -80.95899 3025 ft 167 kts 222°
2026-05-07 03:20 35.43286 -80.96673 2986 ft 169 kts 203°
2026-05-07 03:21 35.42092 -80.96821 2962 ft 177 kts 187°
2026-05-07 03:21 35.40856 -80.96795 3015 ft 178 kts 188°
2026-05-07 03:21 35.39632 -80.96734 3017 ft 178 kts 187°
2026-05-07 03:21 35.38395 -80.96651 2979 ft 177 kts 186°
2026-05-07 03:22 35.37185 -80.96560 2975 ft 175 kts 185°
2026-05-07 03:22 35.35970 -80.96463 2950 ft 178 kts 185°
2026-05-07 03:22 35.34730 -80.96358 3000 ft 179 kts 185°
2026-05-07 03:22 35.33484 -80.96251 2811 ft 178 kts 185°
2026-05-07 03:23 35.32259 -80.96145 2612 ft 175 kts 186°
2026-05-07 03:23 35.31053 -80.96050 2437 ft 173 kts 186°
2026-05-07 03:23 35.29873 -80.95935 2243 ft 164 kts 185°
2026-05-07 03:23 35.28782 -80.95846 2012 ft 149 kts 181°
2026-05-07 03:24 35.27746 -80.95748 1843 ft 143 kts 184°
2026-05-07 03:24 35.26779 -80.95668 1665 ft 137 kts 183°
2026-05-07 03:24 35.25808 -80.95594 1439 ft 142 kts 179°
2026-05-07 03:24 35.24811 -80.95497 1216 ft 145 kts 180°
2026-05-07 03:25 35.23835 -80.95672 1056 ft 141 kts 194°
2026-05-07 03:25 35.22872 -80.95419 822 ft 147 kts 166°
2026-05-07 03:25 35.21897 -80.95245 744 ft 132 kts 179°
2026-05-07 03:25 35.21188 -80.95186 738 ft 66 kts 176°
2026-05-07 03:26 35.20805 -80.95147 740 ft 43 kts 169°
2026-05-07 03:26 35.20579 -80.95017 738 ft 24 kts 141°
2026-05-07 03:26 35.20581 -80.94925 735 ft 7 kts 14°
2026-05-07 03:26 35.20645 -80.94935 736 ft 15 kts 357°
2026-05-07 03:27 35.20796 -80.94949 734 ft 27 kts 355°
2026-05-07 03:27 35.21006 -80.94967 730 ft 30 kts 356°
2026-05-07 03:27 35.21206 -80.94984 735 ft 29 kts 356°
2026-05-07 03:27 35.21409 -80.95002 735 ft 30 kts 356°
2026-05-07 03:28 35.21620 -80.95022 736 ft 31 kts 356°
2026-05-07 03:28 35.21814 -80.95039 736 ft 15 kts 356°
2026-05-07 03:28 35.21868 -80.94960 735 ft 15 kts 84°
2026-05-07 03:28 35.21877 -80.94822 735 ft 19 kts 83°
2026-05-07 03:29 35.21941 -80.94665 734 ft 17 kts 55°
2026-05-07 03:29 35.21961 -80.94584 735 ft 9 kts 102°
2026-05-07 03:29 35.21958 -80.94564 735 ft 0 kts 102°